Regional Weather Roundup
Issued by NWS

Home | Current Version | Previous Version | Graphics & Text | Print | Product List | Glossary On
Versions: 1 2 3 4 5 6 7 8 9 10 11 12 13 14 15 16 17 18 19 20 21 22 23 24 25 26 27 28 29 30 31 32 33 34 35 36 37 38 39 40 41 42 43 44 45 46 47 48 49 50
000
ASUS43 KBIS 121710
RWRND
NORTH DAKOTA REGIONAL WEATHER ROUNDUP
NATIONAL WEATHER SERVICE EASTERN NORTH DAKOTA/GRAND FORKS ND
1100 AM CST FRI FEB 12 2016

  NOTE: "FAIR" INDICATES FEW OR NO CLOUDS BELOW 12,000 FEET WITH NO
  SIGNIFICANT WEATHER AND/OR OBSTRUCTIONS TO VISIBILITY.

NDZ001>003-009>011-017-121800-
...NORTHWEST NORTH DAKOTA...

CITY           SKY/WX    TMP DP  RH WIND       PRES   REMARKS
WILLISTON      CLOUDY     7  -2  66 N5        30.56S WCI  -2
MINOT          CLOUDY     4  -8  57 N7        30.60S WCI  -8
MINOT AFB      CLOUDY     2  -7  66 MISG      30.60S
$$

NDZ018>021-031>035-040>046-121800-
...SOUTHWEST NORTH DAKOTA...

CITY           SKY/WX    TMP DP  RH WIND       PRES   REMARKS
BISMARCK       CLOUDY     9  -2  61 NE6       30.61R WCI  -1
DICKINSON      CLOUDY     7  -4  60 E10       30.47R WCI  -8
GARRISON         N/A      4  -5  66 VRB5      30.57S WCI  -5
HETTINGER      CLOUDY    13   8  81 E7        30.48R HAZE    WCI   3
$$

NDZ004>008-012>016-024-026-027-054-121800-
...NORTHEAST NORTH DAKOTA...

CITY           SKY/WX    TMP DP  RH WIND       PRES   REMARKS
GRAND FORKS    MOSUNNY   -4 -13  65 N17       30.66R WCI -26
GRAND FORKS AF MOSUNNY   -4 -15  58 N15G22    30.65R WCI -24
DEVILS LAKE    CLOUDY    -8 -14  74 N12       30.62R WCI -27
$$

NDZ022-023-025-028>030-036>039-047>053-121800-
...SOUTHEAST NORTH DAKOTA...

CITY           SKY/WX    TMP DP  RH WIND       PRES   REMARKS
JAMESTOWN      MOSUNNY   -2 -10  69 N17       30.59R WCI -23
FARGO          MOSUNNY    0 -11  59 N18       30.64R WCI -21
WAHPETON       CLOUDY     1  -6  71 N20       30.60R WCI -20
$$



USA.gov is the U.S. government's official web portal to all federal, state and local government web resources and services.